Location: Lamoine Observatory
(44.4551°N, 68.3470°W)
Time: 01:23:15
(UTC-04:00)

Daily predictions for brighter satellites

Satellite Brightness Start Highest point End
(mag) Time Altitude Azimuth Time Altitude Azimuth Time Altitude Azimuth
ATLAS 3B R/B 4.1 01:26:04 33° NNW 01:26:04 33° NNW 01:31:11 10° NNE
SL-16 R/B 4.1 01:48:20 29° NE 01:48:20 29° NE 01:52:56 10° N
Cosmos 2322 Rocket 4.1 02:17:08 24° ENE 02:17:08 24° ENE 02:19:45 10° NE
SL-16 R/B 4.0 02:22:18 27° ENE 02:22:18 27° ENE 02:25:14 10° NE
Cosmos 1697 Rocket 4.4 02:30:07 27° N 02:30:07 27° N 02:32:49 10° NNE
Resurs 1-4 Rocket 3.9 02:24:13 10° NNE 02:27:06 27° NE 02:27:06 27° NE
CZ-2D R/B 3.8 02:26:06 10° NNE 02:29:27 30° ENE 02:29:27 30° ENE
Cosmos 2360 Rocket 4.0 02:46:04 24° E 02:46:04 24° E 02:50:06 10° NE
Cosmos 1980 Rocket 3.6 02:48:30 32° N 02:48:30 32° N 02:51:44 10° NNE
ADEOS Rocket 3.8 02:45:55 10° NNE 02:50:14 39° ENE 02:50:14 39° ENE
CENTAUR R/B 2.9 02:56:30 59° N 02:56:30 59° N 03:02:19 10° NE
Cosmos 2263 Rocket 3.8 02:54:08 10° NNW 02:56:25 25° NNW 02:56:25 25° NNW
USA 215 4.0 02:58:20 10° E 03:04:36 50° NNE 03:10:52 10° NW
ADEOS 4.4 03:09:22 10° NNE 03:12:57 45° NNE 03:12:57 45° NNE
Cosmos 2315 Rocket 4.0 03:21:09 75° N 03:21:09 75° N 03:26:51 10° N
SL-16 R/B 3.5 03:33:25 34° NW 03:33:25 34° NW 03:37:05 10° NNW
Cosmos 1709 Rocket 4.5 03:28:05 10° NNW 03:32:40 46° NW 03:32:40 46° NW
ARIANE 5 R/B 3.2 03:30:20 10° N 03:34:01 45° NNW 03:34:01 45° NNW
Cosmos 2074 Rocket 4.0 03:41:47 10° N 03:48:04 80° E 03:51:12 32° SSE
Cosmos 1544 Rocket 4.0 03:48:46 10° N 03:52:27 59° N 03:52:27 59° N
MOS 1 Rocket 3.7 03:49:00 10° NNE 03:53:40 56° E 03:54:16 51° SE
Okean 1 3.9 03:56:13 57° ENE 03:56:13 57° ENE 03:59:54 10° NNE
Cosmos 2322 Rocket 2.9 03:58:57 38° NW 03:58:57 38° NW 04:03:57 10° NNE
Tiangong 2 4.0 04:02:28 12° ESE 04:02:28 12° ESE 04:02:46 10° ESE
SL-16 R/B 2.9 04:04:10 36° NW 04:04:10 36° NW 04:09:24 10° NNE
BREEZE-M DEB (TANK) 4.3 04:02:47 25° SSE 04:04:15 31° ESE 04:13:12 10° ENE
Cosmos 1777 Rocket 4.2 04:02:26 10° NNW 04:06:50 54° WNW 04:06:50 54° WNW
Cosmos 1975 3.1 04:03:46 10° N 04:07:13 62° N 04:07:13 62° N
Cosmos 2237 4.5 04:06:27 38° S 04:08:37 66° ESE 04:14:19 10° NNE
Resurs 1-4 Rocket 3.1 04:04:10 10° N 04:08:11 31° NW 04:08:11 31° NW
CZ-2D R/B 3.1 04:06:18 10° N 04:10:47 33° WNW 04:10:47 33° WNW
Cosmos 2219 Rocket 3.8 04:06:43 10° SSE 04:11:32 31° ESE 04:16:23 10° NE
SL-8 R/B 4.2 04:10:54 42° NW 04:12:08 56° N 04:16:50 10° E
COSMOS 2428 3.2 04:09:54 28° S 04:12:45 55° ESE 04:18:18 10° NNE
Okean O Rocket 2.2 04:10:09 10° NNE 04:14:33 57° E 04:16:33 30° SSE
PSLV R/B 3.8 04:13:15 10° NNE 04:17:01 73° ESE 04:17:15 70° SE
Cosmos 1844 Rocket 3.0 04:11:31 10° NNW 04:17:06 65° ENE 04:22:37 10° SE
DELTA 2 R/B (1) 4.1 04:21:58 38° SSW 04:23:06 43° SSE 04:28:19 10° E
Lacrosse 4 Rocket 3.6 04:26:46 15° SSE 04:26:46 15° SSE 04:27:29 10° SSE
Cosmos 2184 Rocket 4.0 04:18:31 10° NNW 04:24:36 57° W 04:28:02 26° SSW
Cosmos 1455 Rocket 3.1 04:22:35 10° NNW 04:26:43 54° W 04:26:43 54° W
Cosmos 2360 Rocket 2.4 04:27:51 42° WSW 04:29:17 53° WNW 04:34:50 10° NNE
Gblst 52 Del rocket 4.2 04:27:41 30° WNW 04:30:31 67° SW 04:36:44 10° SE
Cosmos 1980 Rocket 4.3 04:30:15 11° NW 04:31:34 11° NW 04:33:25 10° NNW
Cosmos 2278 Rocket 3.6 04:27:00 10° NNW 04:32:20 39° NE 04:37:38 10° SE
ADEOS II 2.2 04:27:47 10° NNE 04:33:04 73° ESE 04:37:45 13° S
ADEOS Rocket 3.7 04:31:57 10° N 04:36:33 27° WNW 04:37:12 27° WNW
Cosmos 1812 4.2 04:40:01 22° NW 04:40:01 22° NW 04:42:11 10° NNW
Cosmos 2237 Rocket 3.9 04:34:27 10° SSE 04:39:22 31° ESE 04:44:19 10° NE
Cosmos 1340 3.2 04:44:18 40° WNW 04:44:18 40° WNW 04:47:48 10° N
Meteor 2-4 Rocket 4.4 04:40:27 10° S 04:45:53 55° E 04:51:12 10° NNE
ATLAS 5 CENTAUR R/B 3.0 04:40:05 10° NNW 04:45:55 60° NE 04:52:18 10° SE
CENTAUR R/B 4.2 04:43:40 16° WNW 04:47:19 24° NNW 04:53:04 10° NNE
USA 215 3.2 04:41:00 10° SE 04:47:29 64° SW 04:54:00 10° NW
SAR-Lupe-3 4.4 04:48:17 10° SSE 04:51:52 86° WSW 04:55:29 10° NNW
Cosmos 2208 Rocket 4.1 04:48:51 23° SSW 04:52:16 69° WNW 04:57:44 10° NNE
Cosmos 1666 2.8 04:49:16 10° N 04:53:09 78° E 04:57:02 10° SSE
Cosmos 1536 Rocket 4.0 04:53:01 31° WSW 04:54:34 43° WNW 04:58:51 10° N
PAYLOAD B 4.2 04:49:28 10° N 04:55:04 72° WNW 05:00:22 12° SSW
USA 229 DEB 4.0 04:50:46 11° SSW 04:57:11 67° ESE 05:04:05 10° NE
USA 229 4.0 04:50:50 11° SSW 04:57:18 66° ESE 05:04:11 10° NE
Cosmos 2154 Rocket 4.0 04:52:30 10° NNW 04:58:35 58° W 05:04:37 10° S
Cosmos 1743 2.8 04:56:40 10° NNW 05:00:26 50° W 05:04:09 10° S
Cosmos 2333 Rocket 2.7 04:54:51 10° S 05:00:27 61° ESE 05:06:07 10° NNE
Cosmos 1867 3.7 04:56:44 10° NNW 05:02:14 78° NE 05:07:39 10° SE
PSLV R/B 3.6 05:00:51 10° N 05:05:08 59° WNW 05:08:52 13° SSW
CZ-4B R/B 3.3 05:03:22 10° N 05:06:42 35° WNW 05:08:01 26° WSW
MTI 4.4 05:06:50 25° SW 05:08:03 34° W 05:11:07 10° NNW
Meteor 1-31 Rocket 3.2 05:06:13 10° NNE 05:10:01 64° E 05:13:48 10° S
Okean 1-7 Rocket 3.5 05:10:15 10° SSW 05:14:46 77° W 05:19:17 10° N
EO 1 Del DPAF 4.1 05:14:02 10° SSW 05:17:23 28° W 05:20:47 10° NW
SL-8 Rocket 4.0 05:12:18 10° N 05:18:33 88° W 05:24:44 10° S
Thor Agena Rocket 3.6 05:15:49 10° SSE 05:20:51 80° ENE 05:25:56 10° NNW
Cosmos 990 Rocket 4.2 05:16:25 10° NNW 05:21:39 77° ENE 05:26:47 10° SSE
Cosmos 2181 Rocket 4.0 05:15:34 10° SSW 05:21:44 69° W 05:28:04 10° N
Cosmos 2150 Rocket 4.0 05:17:01 10° NNW 05:22:19 81° WSW 05:27:41 10° SSE
Cosmos 1606 Rocket 3.7 05:19:34 10° N 05:24:04 82° E 05:28:33 10° S
Meteor PRIRODA 3.7 05:20:23 10° N 05:24:06 60° WNW 05:27:48 10° SSW
Cosmos 1844 3.9 05:19:48 10° NW 05:25:21 49° WSW 05:30:47 10° S
Cosmos 1898 Rocket 3.5 05:23:16 10° NNW 05:28:21 55° WSW 05:33:23 10° S
Cosmos 468 Rocket 3.9 05:23:57 10° SSW 05:29:07 75° WNW 05:34:24 10° NNE
CZ-4B R/B 3.8 05:26:40 10° N 05:31:54 40° WNW 05:37:02 10° SW
Iridium 2 3.6 05:28:26 10° N 05:32:15 72° W 05:36:04 10° S
BREEZE M DEB (TANK) 3.2 05:23:17 10° WNW 05:34:03 73° SW 05:37:30 10° SE
SL-16 R/B 3.8 05:30:35 10° S 05:35:44 38° ESE 05:40:57 10° NE
Tiangong 2 2.9 05:34:35 14° WSW 05:35:56 17° SSW 05:38:06 10° SSE
Cosmos 2341 Rocket 4.5 05:33:27 10° NNW 05:39:09 38° W 05:44:48 10° SSW
ERS-2 2.5 05:39:17 10° N 05:42:49 43° WNW 05:46:20 10° SW
Cosmos 1238 Rocket 4.0 05:42:00 12° W 05:43:12 14° WNW 05:44:55 10° NW
Cosmos 2218 Rocket 4.0 05:39:14 10° NNW 05:45:34 67° W 05:51:49 10° S
Cosmos 1980 3.7 05:40:32 10° SSW 05:46:10 74° WNW 05:51:51 10° NNE
Cosmos 2228 3.3 05:44:30 10° N 05:48:51 75° E 05:53:11 10° SSE
Okean O Rocket 3.3 05:47:41 10° NNW 05:50:29 17° WNW 05:53:17 10° WSW
Cosmos 1809 Rocket 4.5 05:46:54 10° NNW 05:53:07 77° W 05:59:15 10° S
Radarsat Rocket 4.1 05:48:36 10° NNE 05:54:37 80° ESE 06:00:26 10° SSW
SL-8 R/B 3.7 05:50:04 10° WNW 05:54:50 70° SSW 05:59:34 10° SE
Cosmos 2219 Rocket 2.7 05:50:04 10° SW 05:55:19 42° WNW 06:00:38 10° NNE
COSMO-SKYMED 1 2.5 05:51:57 10° S 05:56:16 74° WSW 06:00:37 10° NNW
Cosmos 405 3.2 05:52:55 10° N 05:56:29 80° E 06:00:01 10° SSE
Cosmos 1763 Rocket 3.4 05:51:33 10° SSW 05:56:37 79° WNW 06:01:47 10° NNE
COSMOS 2428 3.8 05:52:39 10° WSW 05:57:22 26° NW 06:02:08 10° N
Cosmos 1937 Rocket 3.9 05:52:33 10° NNW 05:57:34 43° WSW 06:02:32 10° S
Timation 1 Rocket 4.3 05:52:05 10° NNW 05:58:05 73° WSW 06:04:02 10° SSE
Cosmos 1726 Rocket 3.8 05:54:43 10° NNW 05:59:02 50° W 06:03:20 10° SSW
Cosmos 1025 Rocket 3.8 05:55:40 10° SW 05:59:36 32° WNW 06:03:35 10° N
Cosmos 1844 Rocket 3.9 05:56:36 10° WNW 06:00:25 19° W 06:04:12 10° SW
NOSS 0 Rocket 4.1 05:56:35 10° SW 06:02:38 56° WNW 06:08:42 10° NNE
